Location: Krakow
(50.0830°N, 19.9170°E)
Time: 15:56:22
(UTC+02:00)

A-11 Canister half - Pass Details

Date: 26 May 2024
Orbit: 1515 x 1684 km, 47.2° (Epoch: 17 June)

Event Time Altitude Azimuth Distance (km) Brightness Sun altitude
Exits shadow 01:34:38 24° 196° (SSW) 2,819 9.7 -17.6°
Maximum altitude 01:39:39 41° 145° (SE) 2,138 9.4 -17.4°
Drops below altitude 10° 01:48:06 10° 80° (E) 3,700 11.4 -17.0°
Sets 01:51:20 0° 73° (ENE) 4,673 12.0 -16.9°
